Year,Month,Day,Hour,Minute,Value (Times are PST for temperature in C)
2019,03,21,00,00,8.00
2019,03,21,00,01,8.10
2019,03,21,00,02,8.10
2019,03,21,00,03,8.10
2019,03,21,00,04,8.10
2019,03,21,00,05,8.10
2019,03,21,00,06,8.10
2019,03,21,00,07,8.10
2019,03,21,00,08,8.10
2019,03,21,00,09,8.10
2019,03,21,00,10,8.10
2019,03,21,00,11,8.10
2019,03,21,00,12,8.10
2019,03,21,00,13,8.10
2019,03,21,00,14,8.10
2019,03,21,00,15,8.10
2019,03,21,00,16,8.10
2019,03,21,00,17,8.10
2019,03,21,00,18,8.10
2019,03,21,00,19,8.10
2019,03,21,00,20,8.10
2019,03,21,00,21,8.10
2019,03,21,00,22,8.20
2019,03,21,00,23,8.20
2019,03,21,00,24,8.20
2019,03,21,00,25,8.20
2019,03,21,00,26,8.20
2019,03,21,00,27,8.10
2019,03,21,00,28,8.00
2019,03,21,00,29,8.00
2019,03,21,00,30,7.90
2019,03,21,00,31,7.90
2019,03,21,00,32,7.80
2019,03,21,00,33,7.80
2019,03,21,00,34,7.80
2019,03,21,00,35,7.80
2019,03,21,00,36,7.80
2019,03,21,00,37,7.80
2019,03,21,00,38,7.80
2019,03,21,00,39,7.80
2019,03,21,00,40,7.80
2019,03,21,00,41,7.80
2019,03,21,00,42,7.80
2019,03,21,00,43,7.70
2019,03,21,00,44,7.70
2019,03,21,00,45,7.70
2019,03,21,00,46,7.70
2019,03,21,00,47,7.60
2019,03,21,00,48,7.50
2019,03,21,00,49,7.40
2019,03,21,00,50,7.20
2019,03,21,00,51,7.10
2019,03,21,00,52,6.90
2019,03,21,00,53,6.70
2019,03,21,00,54,6.50
2019,03,21,00,55,6.40
2019,03,21,00,56,6.30
2019,03,21,00,57,6.30
2019,03,21,00,58,6.20
2019,03,21,00,59,6.20
2019,03,21,01,00,6.20
2019,03,21,01,01,6.20
2019,03,21,01,02,6.20
2019,03,21,01,03,6.10
2019,03,21,01,04,6.10
2019,03,21,01,05,6.00
2019,03,21,01,06,5.90
2019,03,21,01,07,5.90
2019,03,21,01,08,5.90
2019,03,21,01,09,5.90
2019,03,21,01,10,5.90
2019,03,21,01,11,5.90
2019,03,21,01,12,5.90
2019,03,21,01,13,5.90
2019,03,21,01,14,5.90
2019,03,21,01,15,5.90
2019,03,21,01,16,5.90
2019,03,21,01,17,6.00
2019,03,21,01,18,6.00
2019,03,21,01,19,6.10
2019,03,21,01,20,6.10
2019,03,21,01,21,6.10
2019,03,21,01,22,6.20
2019,03,21,01,23,6.30
2019,03,21,01,24,6.40
2019,03,21,01,25,6.50
2019,03,21,01,26,6.50
2019,03,21,01,27,6.60
2019,03,21,01,28,6.60
2019,03,21,01,29,6.70
2019,03,21,01,30,6.70
2019,03,21,01,31,6.70
2019,03,21,01,32,6.80
2019,03,21,01,33,6.80
2019,03,21,01,34,6.80
2019,03,21,01,35,6.90
2019,03,21,01,36,6.90
2019,03,21,01,37,6.90
2019,03,21,01,38,6.90
2019,03,21,01,39,6.90
2019,03,21,01,40,6.90
2019,03,21,01,41,6.90
2019,03,21,01,42,6.90
2019,03,21,01,43,6.90
2019,03,21,01,44,6.90
2019,03,21,01,45,6.90
2019,03,21,01,46,6.90
2019,03,21,01,47,6.90
2019,03,21,01,48,6.90
2019,03,21,01,49,6.90
2019,03,21,01,50,6.80
2019,03,21,01,51,6.80
2019,03,21,01,52,6.80
2019,03,21,01,53,6.80
2019,03,21,01,54,6.80
2019,03,21,01,55,6.80
2019,03,21,01,56,6.90
2019,03,21,01,57,6.90
2019,03,21,01,58,6.90
2019,03,21,01,59,7.00
2019,03,21,02,00,7.00
2019,03,21,02,01,7.00
2019,03,21,02,02,7.00
2019,03,21,02,03,6.90
2019,03,21,02,04,6.80
2019,03,21,02,05,6.60
2019,03,21,02,06,6.50
2019,03,21,02,07,6.30
2019,03,21,02,08,6.20
2019,03,21,02,09,6.10
2019,03,21,02,10,6.00
2019,03,21,02,11,5.90
2019,03,21,02,12,5.80
2019,03,21,02,13,5.80
2019,03,21,02,14,5.70
2019,03,21,02,15,5.70
2019,03,21,02,16,5.60
2019,03,21,02,17,5.60
2019,03,21,02,18,5.60
2019,03,21,02,19,5.60
2019,03,21,02,20,5.60
2019,03,21,02,21,5.60
2019,03,21,02,22,5.50
2019,03,21,02,23,5.50
2019,03,21,02,24,5.40
2019,03,21,02,25,5.30
2019,03,21,02,26,5.20
2019,03,21,02,27,5.20
2019,03,21,02,28,5.10
2019,03,21,02,29,5.10
2019,03,21,02,30,5.10
2019,03,21,02,31,5.10
2019,03,21,02,32,5.10
2019,03,21,02,33,5.20
2019,03,21,02,34,5.20
2019,03,21,02,35,5.30
2019,03,21,02,36,5.30
2019,03,21,02,37,5.30
2019,03,21,02,38,5.40
2019,03,21,02,39,5.50
2019,03,21,02,40,5.60
2019,03,21,02,41,5.70
2019,03,21,02,42,5.80
2019,03,21,02,43,5.80
2019,03,21,02,44,5.80
2019,03,21,02,45,5.80
2019,03,21,02,46,5.80
2019,03,21,02,47,5.70
2019,03,21,02,48,5.60
2019,03,21,02,49,5.60
2019,03,21,02,50,5.50
2019,03,21,02,51,5.40
2019,03,21,02,52,5.40
2019,03,21,02,53,5.30
2019,03,21,02,54,5.30
2019,03,21,02,55,5.20
2019,03,21,02,56,5.20
2019,03,21,02,57,5.10
2019,03,21,02,58,5.10
2019,03,21,02,59,5.10
2019,03,21,03,00,5.10
2019,03,21,03,01,5.10
2019,03,21,03,02,5.10
2019,03,21,03,03,5.10
2019,03,21,03,04,5.10
2019,03,21,03,05,5.20
2019,03,21,03,06,5.30
2019,03,21,03,07,5.40
2019,03,21,03,08,5.50
2019,03,21,03,09,5.60
2019,03,21,03,10,5.60
2019,03,21,03,11,5.70
2019,03,21,03,12,5.70
2019,03,21,03,13,5.70
2019,03,21,03,14,5.70
2019,03,21,03,15,5.80
2019,03,21,03,16,5.80
2019,03,21,03,17,5.80
2019,03,21,03,18,5.80
2019,03,21,03,19,5.80
2019,03,21,03,20,5.70
2019,03,21,03,21,5.70
2019,03,21,03,22,5.70
2019,03,21,03,23,5.70
2019,03,21,03,24,5.60
2019,03,21,03,25,5.70
2019,03,21,03,26,5.70
2019,03,21,03,27,5.70
2019,03,21,03,28,5.70
2019,03,21,03,29,5.70
2019,03,21,03,30,5.70
2019,03,21,03,31,5.70
2019,03,21,03,32,5.70
2019,03,21,03,33,5.70
2019,03,21,03,34,5.70
2019,03,21,03,35,5.70
2019,03,21,03,36,5.70
2019,03,21,03,37,5.70
2019,03,21,03,38,5.70
2019,03,21,03,39,5.70
2019,03,21,03,40,5.70
2019,03,21,03,41,5.80
2019,03,21,03,42,5.80
2019,03,21,03,43,5.80
2019,03,21,03,44,5.80
2019,03,21,03,45,5.80
2019,03,21,03,46,5.90
2019,03,21,03,47,5.90
2019,03,21,03,48,5.90
2019,03,21,03,49,6.00
2019,03,21,03,50,6.00
2019,03,21,03,51,6.00
2019,03,21,03,52,6.10
2019,03,21,03,53,6.10
2019,03,21,03,54,6.10
2019,03,21,03,55,6.10
2019,03,21,03,56,6.10
2019,03,21,03,57,6.10
2019,03,21,03,58,6.10
2019,03,21,03,59,6.10
2019,03,21,04,00,6.10
2019,03,21,04,01,6.10
2019,03,21,04,02,6.10
2019,03,21,04,03,6.10
2019,03,21,04,04,6.10
2019,03,21,04,05,6.20
2019,03,21,04,06,6.20
2019,03,21,04,07,6.20
2019,03,21,04,08,6.20
2019,03,21,04,09,6.20
2019,03,21,04,10,6.30
2019,03,21,04,11,6.30
2019,03,21,04,12,6.30
2019,03,21,04,13,6.30
2019,03,21,04,14,6.30
2019,03,21,04,15,6.30
2019,03,21,04,16,6.30
2019,03,21,04,17,6.30
2019,03,21,04,18,6.30
2019,03,21,04,19,6.30
2019,03,21,04,20,6.30
2019,03,21,04,21,6.30
2019,03,21,04,22,6.30
2019,03,21,04,23,6.30
2019,03,21,04,24,6.30
2019,03,21,04,25,6.40
2019,03,21,04,26,6.40
2019,03,21,04,27,6.40
2019,03,21,04,28,6.50
2019,03,21,04,29,6.50
2019,03,21,04,30,6.50
2019,03,21,04,31,6.50
2019,03,21,04,32,6.50
2019,03,21,04,33,6.40
2019,03,21,04,34,6.40
2019,03,21,04,35,6.40
2019,03,21,04,36,6.40
2019,03,21,04,37,6.40
2019,03,21,04,38,6.30
2019,03,21,04,39,6.30
2019,03,21,04,40,6.30
2019,03,21,04,41,6.30
2019,03,21,04,42,6.30
2019,03,21,04,43,6.30
2019,03,21,04,44,6.30
2019,03,21,04,45,6.30
2019,03,21,04,46,6.30
2019,03,21,04,47,6.30
2019,03,21,04,48,6.30
2019,03,21,04,49,6.30
2019,03,21,04,50,6.30
2019,03,21,04,51,6.30
2019,03,21,04,52,6.30
2019,03,21,04,53,6.30
2019,03,21,04,54,6.30
2019,03,21,04,55,6.20
2019,03,21,04,56,6.10
2019,03,21,04,57,5.90
2019,03,21,04,58,5.80
2019,03,21,04,59,5.70
2019,03,21,05,00,5.70
2019,03,21,05,01,5.60
2019,03,21,05,02,5.60
2019,03,21,05,03,5.60
2019,03,21,05,04,5.50
2019,03,21,05,05,5.50
2019,03,21,05,06,5.50
2019,03,21,05,07,5.50
2019,03,21,05,08,5.50
2019,03,21,05,09,5.40
2019,03,21,05,10,5.40
2019,03,21,05,11,5.30
2019,03,21,05,12,5.30
2019,03,21,05,13,5.30
2019,03,21,05,14,5.30
2019,03,21,05,15,5.30
2019,03,21,05,16,5.20
2019,03,21,05,17,5.20
2019,03,21,05,18,5.20
2019,03,21,05,19,5.20
2019,03,21,05,20,5.20
2019,03,21,05,21,5.20
2019,03,21,05,22,5.20
2019,03,21,05,23,5.20
2019,03,21,05,24,5.20
2019,03,21,05,25,5.20
2019,03,21,05,26,5.20
2019,03,21,05,27,5.20
2019,03,21,05,28,5.20
2019,03,21,05,29,5.20
2019,03,21,05,30,5.10
2019,03,21,05,31,5.10
2019,03,21,05,32,5.10
2019,03,21,05,33,5.10
2019,03,21,05,34,5.10
2019,03,21,05,35,5.10
2019,03,21,05,36,5.00
2019,03,21,05,37,5.00
2019,03,21,05,38,5.00
2019,03,21,05,39,4.90
2019,03,21,05,40,4.90
2019,03,21,05,41,4.90
2019,03,21,05,42,4.90
2019,03,21,05,43,4.90
2019,03,21,05,44,4.90
2019,03,21,05,45,4.90
2019,03,21,05,46,4.90
2019,03,21,05,47,5.00
2019,03,21,05,48,5.00
2019,03,21,05,49,5.00
2019,03,21,05,50,5.00
2019,03,21,05,51,5.00
2019,03,21,05,52,5.00
2019,03,21,05,53,5.10
2019,03,21,05,54,5.10
2019,03,21,05,55,5.10
2019,03,21,05,56,5.10
2019,03,21,05,57,5.20
2019,03,21,05,58,5.20
2019,03,21,05,59,5.20
2019,03,21,06,00,5.20
2019,03,21,06,01,5.20
2019,03,21,06,02,5.20
2019,03,21,06,03,5.20
2019,03,21,06,04,5.20
2019,03,21,06,05,5.20
2019,03,21,06,06,5.20
2019,03,21,06,07,5.20
2019,03,21,06,08,5.20
2019,03,21,06,09,5.20
2019,03,21,06,10,5.20
2019,03,21,06,11,5.20
2019,03,21,06,12,5.20
2019,03,21,06,13,5.20
2019,03,21,06,14,5.20
2019,03,21,06,15,5.20
2019,03,21,06,16,5.10
2019,03,21,06,17,5.10
2019,03,21,06,18,5.10
2019,03,21,06,19,5.10
2019,03,21,06,20,5.10
2019,03,21,06,21,5.10
2019,03,21,06,22,5.10
2019,03,21,06,23,5.10
2019,03,21,06,24,5.10
2019,03,21,06,25,5.10
2019,03,21,06,26,5.10
2019,03,21,06,27,5.10
2019,03,21,06,28,5.10
2019,03,21,06,29,5.10
2019,03,21,06,30,5.20
2019,03,21,06,31,5.20
2019,03,21,06,32,5.20
2019,03,21,06,33,5.20
2019,03,21,06,34,5.20
2019,03,21,06,35,5.20
2019,03,21,06,36,5.20
2019,03,21,06,37,5.20
2019,03,21,06,38,5.20
2019,03,21,06,39,5.20
2019,03,21,06,40,5.20
2019,03,21,06,41,5.20
2019,03,21,06,42,5.10
2019,03,21,06,43,5.10
2019,03,21,06,44,5.10
2019,03,21,06,45,5.10
2019,03,21,06,46,5.10
2019,03,21,06,47,5.00
2019,03,21,06,48,5.00
2019,03,21,06,49,5.00
2019,03,21,06,50,5.00
2019,03,21,06,51,4.90
2019,03,21,06,52,4.90
2019,03,21,06,53,4.80
2019,03,21,06,54,4.80
2019,03,21,06,55,4.80
2019,03,21,06,56,4.80
2019,03,21,06,57,4.80
2019,03,21,06,58,4.80
2019,03,21,06,59,4.90
2019,03,21,07,00,4.90
2019,03,21,07,01,4.90
2019,03,21,07,02,5.00
2019,03,21,07,03,5.00
2019,03,21,07,04,5.10
2019,03,21,07,05,5.10
2019,03,21,07,06,5.10
2019,03,21,07,07,5.20
2019,03,21,07,08,5.20
2019,03,21,07,09,5.20
2019,03,21,07,10,5.10
2019,03,21,07,11,5.20
2019,03,21,07,12,5.10
2019,03,21,07,13,5.20
2019,03,21,07,14,5.20
2019,03,21,07,15,5.20
2019,03,21,07,16,5.20
2019,03,21,07,17,5.20
2019,03,21,07,18,5.20
2019,03,21,07,19,5.20
2019,03,21,07,20,5.20
2019,03,21,07,21,5.20
2019,03,21,07,22,5.20
2019,03,21,07,23,5.20
2019,03,21,07,24,5.20
2019,03,21,07,25,5.20
2019,03,21,07,26,5.10
2019,03,21,07,27,5.10
2019,03,21,07,28,5.10
2019,03,21,07,29,5.10
2019,03,21,07,30,5.10
2019,03,21,07,31,5.10
2019,03,21,07,32,5.10
2019,03,21,07,33,5.10
2019,03,21,07,34,5.10
2019,03,21,07,35,5.10
2019,03,21,07,36,5.00
2019,03,21,07,37,5.00
2019,03,21,07,38,5.00
2019,03,21,07,39,5.00
2019,03,21,07,40,5.00
2019,03,21,07,41,5.00
2019,03,21,07,42,4.90
2019,03,21,07,43,5.00
2019,03,21,07,44,5.00
2019,03,21,07,45,5.00
2019,03,21,07,46,5.10
2019,03,21,07,47,5.10
2019,03,21,07,48,5.10
2019,03,21,07,49,5.20
2019,03,21,07,50,5.20
2019,03,21,07,51,5.20
2019,03,21,07,52,5.20
2019,03,21,07,53,5.30
2019,03,21,07,54,5.40
2019,03,21,07,55,5.50
2019,03,21,07,56,5.60
2019,03,21,07,57,5.70
2019,03,21,07,58,5.80
2019,03,21,07,59,5.90
2019,03,21,08,00,6.00
2019,03,21,08,01,6.10
2019,03,21,08,02,6.30
2019,03,21,08,03,6.40
2019,03,21,08,04,6.50
2019,03,21,08,05,6.60
2019,03,21,08,06,6.70
2019,03,21,08,07,6.80
2019,03,21,08,08,6.90
2019,03,21,08,09,7.00
2019,03,21,08,10,7.10
2019,03,21,08,11,7.20
2019,03,21,08,12,7.30
2019,03,21,08,13,7.40
2019,03,21,08,14,7.50
2019,03,21,08,15,7.50
2019,03,21,08,16,7.60
2019,03,21,08,17,7.60
2019,03,21,08,18,7.70
2019,03,21,08,19,7.80
2019,03,21,08,20,7.80
2019,03,21,08,21,7.90
2019,03,21,08,22,7.90
2019,03,21,08,23,8.00
2019,03,21,08,24,8.00
2019,03,21,08,25,8.10
2019,03,21,08,26,8.10
2019,03,21,08,27,8.20
2019,03,21,08,28,8.30
2019,03,21,08,29,8.30
2019,03,21,08,30,8.40
2019,03,21,08,31,8.40
2019,03,21,08,32,8.50
2019,03,21,08,33,8.60
2019,03,21,08,34,8.60
2019,03,21,08,35,8.70
2019,03,21,08,36,8.70
2019,03,21,08,37,8.80
2019,03,21,08,38,8.90
2019,03,21,08,39,8.90
2019,03,21,08,40,9.00
2019,03,21,08,41,9.00
2019,03,21,08,42,9.10
2019,03,21,08,43,9.10
2019,03,21,08,44,9.20
2019,03,21,08,45,9.30
2019,03,21,08,46,9.30
2019,03,21,08,47,9.40
2019,03,21,08,48,9.50
2019,03,21,08,49,9.60
2019,03,21,08,50,9.60
2019,03,21,08,51,9.70
2019,03,21,08,52,9.80
2019,03,21,08,53,9.80
2019,03,21,08,54,9.90
2019,03,21,08,55,10.00
2019,03,21,08,56,10.10
2019,03,21,08,57,10.20
2019,03,21,08,58,10.20
2019,03,21,08,59,10.20
2019,03,21,09,00,10.30
2019,03,21,09,01,10.30
2019,03,21,09,02,10.30
2019,03,21,09,03,10.40
2019,03,21,09,04,10.40
2019,03,21,09,05,10.50
2019,03,21,09,06,10.50
2019,03,21,09,07,10.60
2019,03,21,09,08,10.60
2019,03,21,09,09,10.60
2019,03,21,09,10,10.50
2019,03,21,09,11,10.50
2019,03,21,09,12,10.50
2019,03,21,09,13,10.50
2019,03,21,09,14,10.60
2019,03,21,09,15,10.60
2019,03,21,09,16,10.60
2019,03,21,09,17,10.60
2019,03,21,09,18,10.60
2019,03,21,09,19,10.60
2019,03,21,09,20,10.70
2019,03,21,09,21,10.70
2019,03,21,09,22,10.80
2019,03,21,09,23,10.80
2019,03,21,09,24,10.90
2019,03,21,09,25,11.00
2019,03,21,09,26,11.10
2019,03,21,09,27,11.20
2019,03,21,09,28,11.30
2019,03,21,09,29,11.40
2019,03,21,09,30,11.40
2019,03,21,09,31,11.50
2019,03,21,09,32,11.60
2019,03,21,09,33,11.70
2019,03,21,09,34,11.80
2019,03,21,09,35,11.80
2019,03,21,09,36,11.90
2019,03,21,09,37,11.90
2019,03,21,09,38,11.90
2019,03,21,09,39,12.00
2019,03,21,09,40,12.00
2019,03,21,09,41,12.00
2019,03,21,09,42,12.10
2019,03,21,09,43,12.10
2019,03,21,09,44,12.20
2019,03,21,09,45,12.30
2019,03,21,09,46,12.30
2019,03,21,09,47,12.40
2019,03,21,09,48,12.40
2019,03,21,09,49,12.50
2019,03,21,09,50,12.50
2019,03,21,09,51,12.60
2019,03,21,09,52,12.60
2019,03,21,09,53,12.60
2019,03,21,09,54,12.70
2019,03,21,09,55,12.70
2019,03,21,09,56,12.80
2019,03,21,09,57,12.80
2019,03,21,09,58,12.80
2019,03,21,09,59,12.80
2019,03,21,10,00,12.80
2019,03,21,10,01,12.80
2019,03,21,10,02,12.90
2019,03,21,10,03,12.90
2019,03,21,10,04,12.90
2019,03,21,10,05,13.00
2019,03,21,10,06,13.00
2019,03,21,10,07,13.00
2019,03,21,10,08,13.00
2019,03,21,10,09,13.10
2019,03,21,10,10,13.10
2019,03,21,10,11,13.10
2019,03,21,10,12,13.20
2019,03,21,10,13,13.20
2019,03,21,10,14,13.30
2019,03,21,10,15,13.30
2019,03,21,10,16,13.40
2019,03,21,10,17,13.40
2019,03,21,10,18,13.50
2019,03,21,10,19,13.50
2019,03,21,10,20,13.60
2019,03,21,10,21,13.70
2019,03,21,10,22,13.70
2019,03,21,10,23,13.70
2019,03,21,10,24,13.70
2019,03,21,10,25,13.70
2019,03,21,10,26,13.70
2019,03,21,10,27,13.70
2019,03,21,10,28,13.70
2019,03,21,10,29,13.60
2019,03,21,10,30,13.60
2019,03,21,10,31,13.60
2019,03,21,10,32,13.60
2019,03,21,10,33,13.60
2019,03,21,10,34,13.60
2019,03,21,10,35,13.70
2019,03,21,10,36,13.70
2019,03,21,10,37,13.60
2019,03,21,10,38,13.70
2019,03,21,10,39,13.70
2019,03,21,10,40,13.70
2019,03,21,10,41,13.70
2019,03,21,10,42,13.60
2019,03,21,10,43,13.60
2019,03,21,10,44,13.70
2019,03,21,10,45,13.70
2019,03,21,10,46,13.70
2019,03,21,10,47,13.80
2019,03,21,10,48,13.80
2019,03,21,10,49,13.90
2019,03,21,10,50,14.00
2019,03,21,10,51,14.10
2019,03,21,10,52,14.10
2019,03,21,10,53,14.30
2019,03,21,10,54,14.30
2019,03,21,10,55,14.40
2019,03,21,10,56,14.50
2019,03,21,10,57,14.50
2019,03,21,10,58,14.60
2019,03,21,10,59,14.60
2019,03,21,11,00,14.70
2019,03,21,11,01,14.70
2019,03,21,11,02,14.80
2019,03,21,11,03,14.90
2019,03,21,11,04,14.90
2019,03,21,11,05,14.90
2019,03,21,11,06,15.00
2019,03,21,11,07,15.00
2019,03,21,11,08,15.10
2019,03,21,11,09,15.10
2019,03,21,11,10,15.20
2019,03,21,11,11,15.30
2019,03,21,11,12,15.30
2019,03,21,11,13,15.30
2019,03,21,11,14,15.30
2019,03,21,11,15,15.30
2019,03,21,11,16,15.40
2019,03,21,11,17,15.40
2019,03,21,11,18,15.40
2019,03,21,11,19,15.50
2019,03,21,11,20,15.60
2019,03,21,11,21,15.60
2019,03,21,11,22,15.70
2019,03,21,11,23,15.80
2019,03,21,11,24,15.70
2019,03,21,11,25,15.80
2019,03,21,11,26,15.80
2019,03,21,11,27,15.80
2019,03,21,11,28,15.90
2019,03,21,11,29,16.00
2019,03,21,11,30,16.00
2019,03,21,11,31,16.10
2019,03,21,11,32,16.20
2019,03,21,11,33,16.20
2019,03,21,11,34,16.20
2019,03,21,11,35,16.30
2019,03,21,11,36,16.30
2019,03,21,11,37,16.40
2019,03,21,11,38,16.40
2019,03,21,11,39,16.40
2019,03,21,11,40,16.40
2019,03,21,11,41,16.40
2019,03,21,11,42,16.40
2019,03,21,11,43,16.40
2019,03,21,11,44,16.40
2019,03,21,11,45,16.40
2019,03,21,11,46,16.40
2019,03,21,11,47,16.30
2019,03,21,11,48,16.30
2019,03,21,11,49,16.20
2019,03,21,11,50,16.00
2019,03,21,11,51,15.90
2019,03,21,11,52,15.70
2019,03,21,11,53,15.60
2019,03,21,11,54,15.40
2019,03,21,11,55,15.20
2019,03,21,11,56,15.00
2019,03,21,11,57,14.90
2019,03,21,11,58,14.70
2019,03,21,11,59,14.60
2019,03,21,12,00,14.60
2019,03,21,12,01,14.60
2019,03,21,12,02,14.60
2019,03,21,12,03,14.60
2019,03,21,12,04,14.60
2019,03,21,12,05,14.50
2019,03,21,12,06,14.40
2019,03,21,12,07,14.40
2019,03,21,12,08,14.30
2019,03,21,12,09,14.30
2019,03,21,12,10,14.20
2019,03,21,12,11,14.10
2019,03,21,12,12,14.00
2019,03,21,12,13,13.90
2019,03,21,12,14,13.90
2019,03,21,12,15,13.80
2019,03,21,12,16,13.80
2019,03,21,12,17,13.70
2019,03,21,12,18,13.60
2019,03,21,12,19,13.50
2019,03,21,12,20,13.40
2019,03,21,12,21,13.50
2019,03,21,12,22,13.60
2019,03,21,12,23,13.70
2019,03,21,12,24,13.70
2019,03,21,12,25,13.80
2019,03,21,12,26,13.70
2019,03,21,12,27,13.60
2019,03,21,12,28,13.50
2019,03,21,12,29,13.40
2019,03,21,12,30,13.40
2019,03,21,12,31,13.40
2019,03,21,12,32,13.50
2019,03,21,12,33,13.50
2019,03,21,12,34,13.50
2019,03,21,12,35,13.50
2019,03,21,12,36,13.60
2019,03,21,12,37,13.60
2019,03,21,12,38,13.70
2019,03,21,12,39,13.70
2019,03,21,12,40,13.70
2019,03,21,12,41,13.70
2019,03,21,12,42,13.70
2019,03,21,12,43,13.70
2019,03,21,12,44,13.80
2019,03,21,12,45,13.80
2019,03,21,12,46,13.90
2019,03,21,12,47,14.00
2019,03,21,12,48,14.00
2019,03,21,12,49,14.10
2019,03,21,12,50,14.10
2019,03,21,12,51,14.20
2019,03,21,12,52,14.20
2019,03,21,12,53,14.30
2019,03,21,12,54,14.40
2019,03,21,12,55,14.50
2019,03,21,12,56,14.70
2019,03,21,12,57,15.00
2019,03,21,12,58,15.20
2019,03,21,12,59,15.40
2019,03,21,13,00,15.70
2019,03,21,13,01,15.80
2019,03,21,13,02,16.00
2019,03,21,13,03,16.10
2019,03,21,13,04,16.10
2019,03,21,13,05,16.20
2019,03,21,13,06,16.30
2019,03,21,13,07,16.30
2019,03,21,13,08,16.30
2019,03,21,13,09,16.30
2019,03,21,13,10,16.30
2019,03,21,13,11,16.30
2019,03,21,13,12,16.40
2019,03,21,13,13,16.30
2019,03,21,13,14,16.20
2019,03,21,13,15,16.20
2019,03,21,13,16,16.20
2019,03,21,13,17,16.20
2019,03,21,13,18,16.20
2019,03,21,13,19,16.20
2019,03,21,13,20,16.20
2019,03,21,13,21,16.20
2019,03,21,13,22,16.20
2019,03,21,13,23,16.20
2019,03,21,13,24,16.20
2019,03,21,13,25,16.20
2019,03,21,13,26,16.20
2019,03,21,13,27,16.20
2019,03,21,13,28,16.20
2019,03,21,13,29,16.20
2019,03,21,13,30,16.20
2019,03,21,13,31,16.20
2019,03,21,13,32,16.20
2019,03,21,13,33,16.20
2019,03,21,13,34,16.20
2019,03,21,13,35,16.20
2019,03,21,13,36,16.20
2019,03,21,13,37,16.10
2019,03,21,13,38,16.10
2019,03,21,13,39,16.10
2019,03,21,13,40,16.20
2019,03,21,13,41,16.20
2019,03,21,13,42,16.20
2019,03,21,13,43,16.20
2019,03,21,13,44,16.30
2019,03,21,13,45,16.40
2019,03,21,13,46,16.40
2019,03,21,13,47,16.40
2019,03,21,13,48,16.40
2019,03,21,13,49,16.40
2019,03,21,13,50,16.50
2019,03,21,13,51,16.60
2019,03,21,13,52,16.60
2019,03,21,13,53,16.70
2019,03,21,13,54,16.70
2019,03,21,13,55,16.80
2019,03,21,13,56,16.80
2019,03,21,13,57,16.90
2019,03,21,13,58,17.00
2019,03,21,13,59,17.00
2019,03,21,14,00,17.00
2019,03,21,14,01,17.00
2019,03,21,14,02,17.10
2019,03,21,14,03,17.10
2019,03,21,14,04,17.20
2019,03,21,14,05,17.30
2019,03,21,14,06,17.40
2019,03,21,14,07,17.50
2019,03,21,14,08,17.50
2019,03,21,14,09,17.60
2019,03,21,14,10,17.70
2019,03,21,14,11,17.70
2019,03,21,14,12,17.70
2019,03,21,14,13,17.60
2019,03,21,14,14,17.50
2019,03,21,14,15,17.40
2019,03,21,14,16,17.40
2019,03,21,14,17,17.40
2019,03,21,14,18,17.40
2019,03,21,14,19,17.40
2019,03,21,14,20,17.30
2019,03,21,14,21,17.30
2019,03,21,14,22,17.20
2019,03,21,14,23,17.30
2019,03,21,14,24,17.30
2019,03,21,14,25,17.30
2019,03,21,14,26,17.40
2019,03,21,14,27,17.40
2019,03,21,14,28,17.30
2019,03,21,14,29,17.20
2019,03,21,14,30,17.20
2019,03,21,14,31,17.20
2019,03,21,14,32,17.10
2019,03,21,14,33,17.10
2019,03,21,14,34,17.10
2019,03,21,14,35,17.10
2019,03,21,14,36,17.10
2019,03,21,14,37,17.00
2019,03,21,14,38,17.00
2019,03,21,14,39,16.90
2019,03,21,14,40,16.90
2019,03,21,14,41,16.90
2019,03,21,14,42,17.00
2019,03,21,14,43,17.00
2019,03,21,14,44,16.90
2019,03,21,14,45,16.90
2019,03,21,14,46,16.90
2019,03,21,14,47,16.80
2019,03,21,14,48,16.80
2019,03,21,14,49,16.80
2019,03,21,14,50,16.80
2019,03,21,14,51,16.80
2019,03,21,14,52,16.70
2019,03,21,14,53,16.80
2019,03,21,14,54,16.80
2019,03,21,14,55,16.80
2019,03,21,14,56,16.80
2019,03,21,14,57,16.80
2019,03,21,14,58,16.80
2019,03,21,14,59,16.90
2019,03,21,15,00,16.80
2019,03,21,15,01,16.80
2019,03,21,15,02,16.80
2019,03,21,15,03,16.70
2019,03,21,15,04,16.60
2019,03,21,15,05,16.60
2019,03,21,15,06,16.60
2019,03,21,15,07,16.60
2019,03,21,15,08,16.50
2019,03,21,15,09,16.50
2019,03,21,15,10,16.40
2019,03,21,15,11,16.40
2019,03,21,15,12,16.40
2019,03,21,15,13,16.40
2019,03,21,15,14,16.40
2019,03,21,15,15,16.40
2019,03,21,15,16,16.50
2019,03,21,15,17,16.50
2019,03,21,15,18,16.60
2019,03,21,15,19,16.70
2019,03,21,15,20,16.70
2019,03,21,15,21,16.70
2019,03,21,15,22,16.80
2019,03,21,15,23,16.80
2019,03,21,15,24,16.80
2019,03,21,15,25,16.80
2019,03,21,15,26,16.80
2019,03,21,15,27,16.70
2019,03,21,15,28,16.60
2019,03,21,15,29,16.60
2019,03,21,15,30,16.50
2019,03,21,15,31,16.50
2019,03,21,15,32,16.50
2019,03,21,15,33,16.60
2019,03,21,15,34,16.60
2019,03,21,15,35,16.60
2019,03,21,15,36,16.60
2019,03,21,15,37,16.60
2019,03,21,15,38,16.60
2019,03,21,15,39,16.50
2019,03,21,15,40,16.60
2019,03,21,15,41,16.60
2019,03,21,15,42,16.60
2019,03,21,15,43,16.60
2019,03,21,15,44,16.70
2019,03,21,15,45,16.70
2019,03,21,15,46,16.70
2019,03,21,15,47,16.60
2019,03,21,15,48,16.60
2019,03,21,15,49,16.50
2019,03,21,15,50,16.40
2019,03,21,15,51,16.40
2019,03,21,15,52,16.40
2019,03,21,15,53,16.40
2019,03,21,15,54,16.40
2019,03,21,15,55,16.40
2019,03,21,15,56,16.50
2019,03,21,15,57,16.60
2019,03,21,15,58,16.60
2019,03,21,15,59,16.70
2019,03,21,16,00,16.70
2019,03,21,16,01,16.70
2019,03,21,16,02,16.80
2019,03,21,16,03,16.80
2019,03,21,16,04,16.80
2019,03,21,16,05,16.80
2019,03,21,16,06,16.80
2019,03,21,16,07,16.80
2019,03,21,16,08,16.90
2019,03,21,16,09,16.90
2019,03,21,16,10,17.00
2019,03,21,16,11,17.00
2019,03,21,16,12,17.10
2019,03,21,16,13,17.10
2019,03,21,16,14,17.10
2019,03,21,16,15,17.20
2019,03,21,16,16,17.20
2019,03,21,16,17,17.10
2019,03,21,16,18,17.00
2019,03,21,16,19,17.00
2019,03,21,16,20,16.90
2019,03,21,16,21,16.90
2019,03,21,16,22,16.90
2019,03,21,16,23,16.80
2019,03,21,16,24,16.80
2019,03,21,16,25,16.90
2019,03,21,16,26,16.90
2019,03,21,16,27,16.90
2019,03,21,16,28,16.90
2019,03,21,16,29,16.90
2019,03,21,16,30,16.90
2019,03,21,16,31,16.90
2019,03,21,16,32,17.00
2019,03,21,16,33,17.00
2019,03,21,16,34,17.00
2019,03,21,16,35,17.00
2019,03,21,16,36,17.00
2019,03,21,16,37,17.00
2019,03,21,16,38,17.00
2019,03,21,16,39,17.00
2019,03,21,16,40,17.00
2019,03,21,16,41,17.10
2019,03,21,16,42,17.10
2019,03,21,16,43,17.00
2019,03,21,16,44,17.00
2019,03,21,16,45,17.00
2019,03,21,16,46,16.90
2019,03,21,16,47,16.90
2019,03,21,16,48,16.90
2019,03,21,16,49,16.90
2019,03,21,16,50,16.90
2019,03,21,16,51,16.80
2019,03,21,16,52,16.80
2019,03,21,16,53,16.80
2019,03,21,16,54,16.70
2019,03,21,16,55,16.70
2019,03,21,16,56,16.60
2019,03,21,16,57,16.60
2019,03,21,16,58,16.50
2019,03,21,16,59,16.50
2019,03,21,17,00,16.40
2019,03,21,17,01,16.40
2019,03,21,17,02,16.30
2019,03,21,17,03,16.30
2019,03,21,17,04,16.30
2019,03,21,17,05,16.20
2019,03,21,17,06,16.20
2019,03,21,17,07,16.20
2019,03,21,17,08,16.20
2019,03,21,17,09,16.20
2019,03,21,17,10,16.10
2019,03,21,17,11,16.10
2019,03,21,17,12,16.10
2019,03,21,17,13,16.10
2019,03,21,17,14,16.00
2019,03,21,17,15,15.90
2019,03,21,17,16,15.90
2019,03,21,17,17,15.90
2019,03,21,17,18,15.90
2019,03,21,17,19,15.80
2019,03,21,17,20,15.80
2019,03,21,17,21,15.80
2019,03,21,17,22,15.80
2019,03,21,17,23,15.80
2019,03,21,17,24,15.80
2019,03,21,17,25,15.80
2019,03,21,17,26,15.80
2019,03,21,17,27,15.80
2019,03,21,17,28,15.80
2019,03,21,17,29,15.80
2019,03,21,17,30,15.80
2019,03,21,17,31,15.90
2019,03,21,17,32,15.90
2019,03,21,17,33,15.90
2019,03,21,17,34,16.00
2019,03,21,17,35,16.10
2019,03,21,17,36,16.10
2019,03,21,17,37,16.20
2019,03,21,17,38,16.20
2019,03,21,17,39,16.20
2019,03,21,17,40,16.30
2019,03,21,17,41,16.30
2019,03,21,17,42,16.30